Location: Newark
(47.4000°N, 7.5833°E)
Time: 00:31:56
(UTC+00:00)

N. Korean satellite - Pass Details

Date: 04 February 2020
Orbit: 456 x 505 km, 97.2° (Epoch: 24 February)

Event Time Altitude Azimuth Distance (km) Brightness Sun altitude
Rises 04:33:40 0° 25° (NNE) 2,577 10.6 -23.7°
Reaches altitude 10° 04:36:05 10° 40° (NE) 1,698 9.8 -23.3°
Maximum altitude 04:39:01 23° 94° (E) 1,113 9.2 -22.8°
Drops below altitude 10° 04:41:58 10° 147° (SSE) 1,704 9.7 -22.3°
Sets 04:44:22 0° 163° (SSE) 2,587 10.5 -21.9°
